Orbital Elements at Epoch 2459000.5 (2020-May-31.0) TDB
Reference: JPL 20 (heliocentric ecliptic J2000)
Element | Value | Uncertainty (1-sigma) | Units |
e | .1656157821004465 | 3.495e-08 | |
a | 2.36873567488937 | 9.7393e-09 | au |
q | 1.976435663503338 | 8.5868e-08 | au |
i | 4.683382215625287 | 3.6695e-06 | deg |
node | 98.97095934535527 | 5.4526e-05 | deg |
peri | 5.223412269761584 | 5.6233e-05 | deg |
M | 238.8728780602248 | 1.3972e-05 | deg |
tp | 2459448.535292707862 (2021-Aug-22.03529271) | 5.2628e-05 | TDB |
period | 1331.598594863218 3.65 | 8.2125e-06 2.248e-08 | d yr |
n | .2703517421757112 | 1.6674e-09 | deg/d |
Q | 2.761035686275402 | 1.1352e-08 | au |
|
| | Orbit Determination Parameters
Additional Information
|